Westfield, MA

6:33 PM EDT on April 28, 2017 (GMT -0400)
Barnes Municipal

Weather History for KBAF - April, 2014

Change the Weather History Date:

Wednesday, April 9, 2014

  Actual Average Record
Temperature  
Mean Temperature 46 °F -  
Max Temperature 57 °F 53 °F 73 °F (2002)
Min Temperature 34 °F 32 °F 24 °F (1977)
Degree Days  
Heating Degree Days 20    
Moisture  
Dew Point 25 °F    
Average Humidity 47    
Maximum Humidity 89    
Minimum Humidity 22    
Precipitation  
Precipitation 0.00 in - - ()
Sea Level Pressure  
Sea Level Pressure 29.72 in    
Wind  
Wind Speed 11 mph (NW)    
Max Wind Speed 24 mph    
Max Gust Speed 32 mph    
Visibility 10 miles    
Events      
Averages and records for this station are not official NWS values.
T = Trace of Precipitation, MM = Missing Value Source: NWS Daily Summary

Daily Weather History Graph

Daily Weather History Graph

Search for Another Location

Airport or City:

Trip Planner

Search our weather history database for the weather conditions in past years. The results will help you decide how hot, cold, wet, or windy it might be!

Date:

Astronomy

Apr. 09, 2014 Rise Set
Actual Time 6:20 AM EDT 7:25 PM EDT
Civil Twilight 5:51 AM EDT 7:54 PM EDT
Nautical Twilight 5:17 AM EDT 8:28 PM EDT
Astronomical Twilight 4:41 AM EDT 9:04 PM EDT
Moon 2:05 PM EDT (4/9) 3:13 AM EDT (4/9)
Length of Visible Light 14h 02m
Length of Day
13h 05m
Waxing Gibbous, 71% of the Moon is Illuminated
Apr 9
Waxing Gibbous
Apr 15
Full
Apr 22
Last Quarter
Apr 29
New
May 6
First Quarter

Hourly Weather History & Observations

Time (EDT) Temp. Windchill Dew Point Humidity Pressure Visibility Wind Dir Wind Speed Gust Speed Precip Events Conditions
12:53 AM 45.0 °F 38.5 °F 33.1 °F 63% 29.58 in 10.0 mi NW 13.8 mph 21.9 mph N/A   Partly Cloudy
1:53 AM 43.0 °F 37.7 °F 33.1 °F 68% 29.60 in 10.0 mi WNW 9.2 mph - N/A   Clear
2:53 AM 43.0 °F 38.8 °F 33.1 °F 68% 29.60 in 10.0 mi NNW 6.9 mph - N/A   Clear
3:53 AM 39.0 °F - 33.1 °F 79% 29.58 in 10.0 mi Calm Calm - N/A   Clear
4:53 AM 41.0 °F 36.4 °F 33.1 °F 73% 29.59 in 10.0 mi NNW 6.9 mph - N/A   Clear
5:53 AM 35.1 °F - 30.9 °F 85% 29.61 in 10.0 mi Calm Calm - N/A   Clear
6:53 AM 34.0 °F - 30.9 °F 89% 29.65 in 10.0 mi Calm Calm - N/A   Clear
7:53 AM 43.0 °F - 35.1 °F 74% 29.66 in 10.0 mi Calm Calm - N/A   Clear
8:53 AM 48.9 °F - 34.0 °F 56% 29.66 in 10.0 mi NNW 5.8 mph - N/A   Clear
9:53 AM 52.0 °F - 34.0 °F 50% 29.66 in 10.0 mi NNW 12.7 mph - N/A   Clear
10:53 AM 53.1 °F - 33.1 °F 47% 29.68 in 10.0 mi NW 23.0 mph 32.2 mph N/A   Scattered Clouds
11:53 AM 55.0 °F - 30.9 °F 40% 29.69 in 10.0 mi NW 19.6 mph 28.8 mph N/A   Scattered Clouds
12:53 PM 55.9 °F - 28.0 °F 34% 29.69 in 10.0 mi WNW 19.6 mph 26.5 mph N/A   Partly Cloudy
1:53 PM 57.0 °F - 25.0 °F 29% 29.70 in 10.0 mi WNW 21.9 mph 29.9 mph N/A   Mostly Cloudy
2:53 PM 57.9 °F - 23.0 °F 26% 29.70 in 10.0 mi WNW 20.7 mph 32.2 mph N/A   Mostly Cloudy
3:53 PM 55.9 °F - 19.0 °F 24% 29.71 in 10.0 mi NW 18.4 mph 31.1 mph N/A   Partly Cloudy
4:53 PM 54.0 °F - 15.1 °F 22% 29.73 in 10.0 mi WNW 24.2 mph 32.2 mph N/A   Clear
5:53 PM 52.0 °F - 16.0 °F 24% 29.76 in 10.0 mi NW 20.7 mph 32.2 mph N/A   Clear
6:53 PM 50.0 °F - 14.0 °F 24% 29.80 in 10.0 mi WNW 12.7 mph 23.0 mph N/A   Clear
7:53 PM 46.0 °F 39.3 °F 12.0 °F 25% 29.84 in 10.0 mi NW 16.1 mph 24.2 mph N/A   Clear
8:53 PM 45.0 °F 38.9 °F 12.0 °F 26% 29.90 in 10.0 mi WNW 12.7 mph - N/A   Clear
9:53 PM 43.0 °F 37.7 °F 12.9 °F 30% 29.94 in 10.0 mi NW 9.2 mph - N/A   Clear
10:53 PM 41.0 °F 35.8 °F 14.0 °F 33% 29.97 in 10.0 mi NW 8.1 mph - N/A   Clear
11:53 PM 39.9 °F 37.8 °F 15.1 °F 36% 30.01 in 10.0 mi West 3.5 mph - N/A   Clear